This is the latest recevied weather packets stored in our database for station/object NW0017. If no packets are shown the sender has not sent any weather packets the latest 1 day(s).
| Time | Temp. | Humidity | Pressure | Rain* | Wind** | Luminosity | Snow |
|---|---|---|---|---|---|---|---|
| 1778066036 | 30° C | 88% | 1004.7 hPa | 0 mm | 2.68 m/s, 72° | 10 W/m² | - |
| 1778065976 | 30° C | 88% | 1004.7 hPa | 0 mm | 3.13 m/s, 81° | 11 W/m² | - |
| 1778065916 | 30° C | 88% | 1004.7 hPa | 0 mm | 2.68 m/s, 76° | 13 W/m² | - |
| 1778065856 | 30° C | 88% | 1004.7 hPa | 0 mm | 2.68 m/s, 64° | 14 W/m² | - |
| 1778065796 | 30° C | 88% | 1004.7 hPa | 0 mm | 2.24 m/s, 94° | 16 W/m² | - |
| 1778065736 | 30° C | 88% | 1004.6 hPa | 0 mm | 2.68 m/s, 85° | 17 W/m² | - |
| 1778065676 | 30° C | 88% | 1004.6 hPa | 0 mm | 2.68 m/s, 76° | 18 W/m² | - |
| 1778065616 | 30° C | 89% | 1004.6 hPa | 0 mm | 3.13 m/s, 75° | 20 W/m² | - |
| 1778065556 | 30° C | 89% | 1004.6 hPa | 0 mm | 3.13 m/s, 87° | 21 W/m² | - |
| 1778065496 | 30° C | 89% | 1004.5 hPa | 0 mm | 2.68 m/s, 53° | 23 W/m² | - |
| 1778065436 | 30° C | 89% | 1004.5 hPa | 0 mm | 2.24 m/s, 71° | 24 W/m² | - |
| 1778065376 | 30° C | 89% | 1004.5 hPa | 0 mm | 1.79 m/s, 94° | 25 W/m² | - |
| 1778065316 | 30° C | 89% | 1004.5 hPa | 0 mm | 2.24 m/s, 83° | 27 W/m² | - |
| 1778065256 | 30° C | 89% | 1004.5 hPa | 0 mm | 2.24 m/s, 83° | 28 W/m² | - |
| 1778065196 | 30° C | 89% | 1004.4 hPa | 0 mm | 3.13 m/s, 72° | 28 W/m² | - |
| 1778065136 | 30° C | 89% | 1004.4 hPa | 0 mm | 2.24 m/s, 88° | 29 W/m² | - |
| 1778065076 | 30° C | 89% | 1004.4 hPa | 0 mm | 2.24 m/s, 64° | 31 W/m² | - |
| 1778065016 | 30° C | 89% | 1004.4 hPa | 0 mm | 4.02 m/s, 71° | 32 W/m² | - |
| 1778064956 | 30° C | 89% | 1004.4 hPa | 0 mm | 3.58 m/s, 65° | 33 W/m² | - |
| 1778064896 | 30° C | 89% | 1004.4 hPa | 0 mm | 2.68 m/s, 71° | 35 W/m² | - |
| 1778064836 | 30° C | 89% | 1004.4 hPa | 0 mm | 3.58 m/s, 44° | 36 W/m² | - |
| 1778064776 | 30° C | 89% | 1004.4 hPa | 0 mm | 3.13 m/s, 48° | 38 W/m² | - |
| 1778064716 | 30° C | 89% | 1004.4 hPa | 0 mm | 2.68 m/s, 39° | 39 W/m² | - |
| 1778064656 | 30° C | 89% | 1004.4 hPa | 0 mm | 2.68 m/s, 46° | 40 W/m² | - |
| 1778064596 | 30° C | 89% | 1004.4 hPa | 0 mm | 2.24 m/s, 24° | 42 W/m² | - |
* Rain latest hour (hover to see other rain measurements)
** Current wind speed in m/s (hover to see current wind gust speed)